Theta_e
292 290 290 291 291 291 291 291 292 297 297 296 300 301 302 302 303 303 302 302 302 303 303 302 302 304 304 305 308 307 307 307 308 308 309 310 311 313 312 312 315 318 321 320 318 324 327 314 314 318 315 314 314 315
298 293 291 291 291 291 291 291 292 293 298 294 299 301 302 302 303 303 304 301 301 302 303 302 302 302 303 303 305 305 306 307 309 308 308 309 313 310 312 317 311 317 315 318 317 318 313 313 313 313 312 313 312 313
303 299 296 292 291 291 291 291 292 293 297 293 294 301 303 303 303 303 303 302 301 302 304 303 304 302 302 303 303 306 305 305 308 307 309 309 311 311 313 314 313 311 311 316 315 314 313 313 313 311 311 312 312 311
306 303 302 299 293 292 292 291 292 294 296 293 293 298 303 304 303 303 302 302 301 302 306 305 301 304 304 304 304 303 304 304 305 307 308 309 311 308 313 312 313 312 312 313 314 312 313 312 312 311 311 311 311 311
306 306 305 304 300 292 293 293 292 296 296 292 292 297 302 304 304 302 302 301 301 304 308 307 305 304 305 306 305 305 304 305 307 307 309 309 309 309 311 311 312 311 313 315 315 311 311 311 310 310 310 310 310 310
306 306 306 306 305 297 292 294 293 293 297 294 292 296 303 304 304 303 305 303 302 301 305 309 305 305 305 306 307 308 305 306 307 305 309 309 307 310 310 312 310 309 307 309 311 311 311 311 310 310 309 309 310 311
306 306 305 306 305 304 293 294 294 293 296 293 293 302 306 306 304 303 306 304 305 303 306 307 307 306 306 308 308 308 305 308 309 310 308 308 308 308 310 310 309 308 307 307 307 310 311 310 311 311 310 311 311 310
304 305 305 305 305 305 301 295 295 295 295 293 298 304 307 306 304 305 306 308 305 305 305 307 309 309 306 309 310 307 309 307 308 309 308 309 308 308 310 309 309 307 307 307 307 307 308 309 311 312 311 311 312 311
303 304 305 306 305 305 303 296 295 295 296 294 301 306 306 305 304 305 306 306 305 304 308 307 310 312 308 311 309 309 307 311 308 310 310 309 308 310 308 308 308 308 308 307 307 308 308 309 309 309 310 310 312 313
303 303 304 305 305 305 303 299 295 294 297 295 304 305 308 305 305 307 305 307 306 308 307 309 309 312 309 312 309 308 307 308 311 309 308 306 308 306 307 307 308 310 309 308 310 310 309 309 309 309 309 309 309 311
301 302 303 303 303 303 302 300 295 293 297 296 299 305 302 303 304 304 309 308 307 309 310 310 311 312 309 311 309 307 307 307 310 311 311 313 312 311 310 311 310 310 309 309 309 309 309 309 309 309 309 309 309 309
300 301 301 302 302 303 303 297 294 295 295 296 297 298 301 304 305 307 307 306 309 310 308 310 309 309 310 307 308 308 307 307 311 307 313 315 312 311 309 309 310 310 310 311 311 310 311 311 310 310 310 310 309 308
300 300 301 302 302 301 301 296 296 294 296 302 301 305 304 304 306 308 308 309 310 309 309 308 309 309 307 307 307 307 310 308 304 311 313 313 311 310 309 309 309 310 310 311 311 310 310 310 310 310 311 310 310 310
299 300 300 301 300 300 295 297 299 296 297 303 305 307 305 307 308 310 310 310 309 307 308 307 308 309 306 308 307 307 306 304 308 311 312 311 311 309 308 308 310 311 311 311 311 311 311 310 310 310 310 310 311 311
298 299 300 300 299 296 297 302 300 298 298 304 306 309 308 306 306 306 306 307 307 306 306 306 306 306 308 308 306 305 306 308 308 312 312 313 310 309 309 309 310 310 310 310 310 311 311 310 310 309 309 309 311 311
298 299 299 298 297 300 301 301 298 300 300 304 305 308 306 306 307 306 307 308 306 304 304 305 307 308 308 307 306 307 308 309 315 307 311 309 309 309 309 308 309 309 310 310 310 309 309 308 309 309 308 308 307 308
298 299 299 299 299 300 298 297 299 305 305 309 310 307 306 305 307 306 306 307 304 306 310 307 310 310 305 308 307 304 308 314 311 311 309 308 308 309 308 307 309 308 309 309 309 309 308 307 308 309 308 308 306 306
297 297 298 298 298 297 295 297 301 305 308 309 310 308 304 306 307 307 306 305 306 307 307 310 307 309 311 309 309 308 306 308 308 308 308 309 308 308 307 309 307 307 307 307 308 309 308 307 310 309 308 306 306 305
295 298 298 298 298 296 297 299 301 304 307 308 306 304 304 305 305 306 306 305 305 305 307 308 310 311 312 308 308 308 308 308 311 310 309 308 308 308 306 306 306 307 307 307 308 309 308 307 307 308 307 306 305 304
295 297 298 297 296 297 299 301 301 305 305 308 305 306 306 307 306 305 305 305 305 306 308 309 310 310 310 310 309 310 308 308 308 309 309 309 307 307 307 306 306 305 306 307 307 306 308 307 305 305 306 304 304 302
296 296 297 296 295 295 298 300 301 303 305 306 306 306 308 305 306 306 306 304 305 308 309 308 308 309 308 308 306 306 307 306 308 309 309 309 308 307 307 306 305 306 307 307 308 308 307 306 304 304 305 304 302 302
296 296 296 295 297 298 298 298 299 300 301 305 305 305 307 309 307 306 304 306 307 307 307 307 307 308 308 306 307 306 307 306 306 306 304 305 308 308 308 306 305 306 306 307 307 307 306 304 302 303 303 303 302 301
295 296 295 296 298 299 301 300 302 302 301 302 303 305 305 305 304 302 306 306 306 305 305 305 305 304 306 306 306 307 306 307 309 308 307 307 307 306 306 307 305 305 307 306 305 305 304 302 302 302 302 301 301 301
296 296 298 298 297 299 299 302 302 305 304 305 306 305 305 305 302 304 306 306 305 303 304 305 305 306 306 306 308 308 307 306 307 306 305 306 307 307 306 306 305 304 304 304 306 305 304 302 301 301 300 300 300 299
297 296 296 299 298 301 301 303 303 302 306 306 305 306 306 302 306 305 305 304 303 303 303 303 303 304 305 307 308 306 303 305 308 308 305 305 305 305 305 304 303 302 302 304 305 304 302 300 300 300 298 297 297 298
297 296 298 298 299 301 302 305 304 305 304 305 305 304 301 304 304 305 304 303 302 302 302 303 304 305 306 306 308 307 305 304 305 306 304 303 304 304 304 303 303 303 301 303 303 302 301 299 298 297 297 296 295 296
297 295 296 296 298 298 300 301 300 302 304 305 305 303 304 306 305 304 302 302 303 302 301 303 304 305 307 307 304 304 302 303 304 304 302 300 299 300 301 302 303 301 300 300 299 299 298 297 296 295 295 294 293 293
296 296 297 297 297 299 301 301 301 302 304 303 303 304 305 305 305 303 302 301 301 302 301 300 301 302 303 303 302 301 302 301 300 299 298 297 297 299 299 299 298 299 299 298 296 296 296 295 294 294 293 293 292 291
297 296 296 295 297 298 299 300 301 302 302 303 305 305 305 304 302 303 302 301 301 301 302 302 301 299 298 298 299 301 302 301 302 303 303 302 300 298 298 299 299 298 297 295 294 293 293 293 293 292 291 291 290 290
295 294 295 295 297 298 299 299 299 300 300 302 302 302 302 302 302 301 301 301 301 302 302 301 300 299 301 301 299 298 297 298 299 300 301 301 299 297 297 298 298 297 296 296 295 294 293 293 292 292 290 289 288 288
295 295 296 296 297 297 298 297 298 298 299 299 301 302 302 301 301 296 295 295 297 299 299 300 300 300 300 300 300 300 298 294 295 297 297 297 297 296 296 296 296 296 296 295 294 293 293 292 291 289 288 286 285 285
296 296 297 296 297 297 297 297 298 298 299 299 300 300 300 301 301 296 292 294 297 298 297 298 298 298 296 295 294 294 294 292 292 294 294 294 294 294 295 295 295 294 293 292 292 291 291 290 289 287 286 285 284 284
295 296 296 297 297 297 298 298 299 299 299 300 300 300 301 301 298 293 290 291 291 291 292 291 290 290 290 290 289 289 291 291 292 293 293 293 294 293 293 292 292 291 291 291 290 289 289 288 287 286 284 284 283 282
Wind_Speed
26 26 27 29 30 32 34 34 33 26 31 33 25 20 13 10 8 7 7 9 7 3 11 8 5 7 8 5 3 7 7 1 3 6 4 4 3 3 2 3 4 2 1 1 2 2 4 16 3 5 5 7 11 14
26 27 27 29 30 31 33 34 34 31 27 35 26 20 14 10 10 7 5 6 7 6 8 24 26 29 26 25 7 3 4 5 3 3 3 3 1 2 5 1 3 1 3 1 3 3 5 8 3 5 7 8 11 13
27 27 28 28 29 31 32 34 36 34 26 35 31 21 16 11 10 8 10 7 5 3 7 4 3 4 9 11 18 3 2 4 1 2 2 2 3 2 3 3 2 1 3 1 2 5 10 5 3 9 10 11 13 14
27 27 29 29 29 30 32 34 36 33 27 34 32 26 18 12 11 10 9 5 4 5 3 5 5 6 3 1 7 20 11 2 2 1 2 2 2 3 2 2 2 3 3 4 3 8 6 6 9 13 15 13 16 17
28 28 29 32 31 30 32 33 35 33 29 36 35 27 19 13 11 10 13 13 14 2 3 6 18 6 5 8 11 13 16 6 1 1 2 2 1 2 3 1 3 4 4 3 3 3 6 11 11 17 14 17 18 18
28 29 31 32 33 32 31 33 34 35 32 39 39 24 14 13 7 4 3 5 15 10 3 3 4 5 8 10 9 4 5 4 2 2 2 2 2 2 2 2 3 4 7 6 5 14 13 16 14 9 15 17 18 17
26 27 29 31 33 34 32 33 34 36 33 40 35 19 15 10 13 4 2 3 2 11 2 4 5 2 7 5 3 2 1 1 2 1 1 2 1 3 2 3 10 11 10 10 11 10 9 12 13 17 15 17 17 17
27 27 28 31 32 34 33 32 34 32 36 40 24 16 7 5 8 5 0 5 9 2 1 2 4 4 5 3 2 2 2 0 1 2 1 3 2 1 0 6 12 13 13 10 7 9 11 16 18 15 13 15 16 15
26 26 27 29 30 33 31 31 31 31 38 30 18 1 2 1 2 1 9 1 12 3 2 2 2 3 4 1 2 2 2 2 3 3 2 3 2 2 4 10 11 13 9 11 11 11 11 12 15 16 15 15 15 15
25 26 27 28 28 30 30 29 26 33 34 21 5 2 1 1 11 4 3 2 2 3 3 3 2 3 1 2 3 3 2 2 2 2 2 2 2 6 11 9 10 11 12 11 12 12 13 14 15 16 16 15 14 15
25 24 24 26 26 27 29 27 23 32 13 11 7 3 8 12 3 1 2 2 2 3 3 3 3 4 1 2 1 1 1 2 1 2 2 1 1 5 9 7 6 8 10 11 12 14 14 15 16 16 16 15 15 16
22 23 22 24 25 26 27 20 22 20 14 13 14 14 6 3 1 2 2 1 3 2 2 2 1 2 1 1 1 1 0 1 1 3 1 2 3 13 9 9 9 8 9 11 12 12 14 14 14 14 15 16 16 22
21 22 24 26 25 26 19 14 23 26 25 2 3 2 1 1 1 3 3 2 2 2 2 1 4 1 1 0 1 0 2 1 2 0 1 2 3 5 7 6 6 7 8 11 14 16 19 15 17 16 15 21 22 21
24 24 24 25 28 23 10 19 27 26 4 2 2 4 3 3 4 4 4 3 2 3 3 2 1 1 1 1 1 1 0 1 2 2 2 3 6 8 7 4 5 10 11 12 13 14 14 15 15 20 20 22 21 17
22 23 24 24 4 8 19 25 27 13 4 3 3 5 6 4 3 3 3 2 3 1 1 1 1 1 0 1 1 1 1 1 1 2 2 4 4 6 7 5 6 7 9 11 13 13 14 16 15 15 22 24 20 19
20 20 8 8 13 24 25 25 12 3 3 3 5 4 3 2 4 3 4 4 3 3 2 1 1 1 1 1 1 1 2 3 2 3 4 4 7 7 6 6 7 8 9 9 12 14 17 16 15 17 22 22 21 21
20 6 8 20 25 25 24 5 3 4 4 4 5 4 3 2 4 3 4 3 4 3 2 2 3 2 2 2 2 4 4 3 4 5 3 5 7 7 6 6 5 7 6 6 9 13 15 19 19 19 14 21 23 22
14 19 22 22 22 21 5 4 3 3 6 6 4 3 3 4 4 4 4 4 4 3 3 3 3 5 4 3 3 4 5 5 5 6 5 5 4 4 4 4 5 5 7 11 14 16 18 19 13 11 20 21 20 17
21 23 21 20 14 5 3 3 3 4 6 3 4 3 3 3 6 7 5 4 5 2 3 3 4 4 4 4 5 4 4 4 4 2 2 5 5 3 2 2 3 5 7 9 10 10 14 18 16 17 17 21 16 19
22 20 18 13 7 3 4 3 4 4 4 2 3 3 3 3 2 3 5 5 4 3 5 5 7 7 4 5 6 6 6 3 3 3 3 2 2 1 2 1 3 6 6 8 10 8 11 13 17 21 20 20 20 18
19 11 6 3 7 9 4 3 4 4 4 3 2 2 3 2 3 4 4 5 4 4 5 6 8 8 9 6 5 6 5 6 6 4 2 3 1 4 3 1 3 2 4 6 6 9 10 10 13 19 20 21 25 26
11 12 4 6 5 5 5 8 4 4 3 3 3 3 3 3 4 4 3 4 4 8 6 9 9 8 8 6 6 12 8 9 8 5 5 5 3 2 1 2 4 4 5 6 8 9 11 10 12 16 16 18 19 25
12 7 5 5 5 5 5 7 5 4 4 3 1 2 3 2 2 1 3 4 4 3 5 5 6 6 5 3 4 5 8 10 5 4 4 5 2 2 3 3 2 4 5 8 8 10 10 10 12 12 15 16 17 19
10 4 4 4 8 4 3 3 3 3 3 2 2 3 3 2 1 2 4 3 4 3 4 6 4 4 2 2 4 5 8 8 5 4 3 1 1 1 2 3 3 3 4 7 7 10 12 11 12 12 13 14 15 16
5 5 5 7 5 5 5 3 4 2 4 6 3 4 2 0 2 2 3 2 1 3 4 3 4 5 4 3 3 4 5 7 4 4 3 4 2 1 2 3 5 4 8 10 10 9 10 11 12 13 12 13 15 15
8 7 8 6 3 5 6 4 6 6 4 5 5 2 0 2 2 5 2 3 3 4 5 4 3 3 4 5 4 4 6 7 8 4 5 3 2 2 3 4 5 6 11 9 9 9 9 10 11 12 11 13 15 14
8 9 5 4 3 2 3 3 2 2 4 6 3 4 3 3 5 3 3 1 2 4 7 7 6 4 3 5 4 6 8 9 5 5 10 8 6 4 4 4 4 5 6 7 8 9 10 11 11 11 11 11 13 13
8 6 9 6 5 4 4 2 3 4 4 3 3 6 5 5 3 0 1 1 4 6 8 7 4 4 2 2 5 9 9 10 13 13 12 10 8 6 6 6 6 7 8 9 8 8 8 9 9 9 10 10 11 12
5 4 5 4 4 5 7 7 7 5 3 4 5 4 4 2 2 1 2 7 8 10 9 6 3 1 3 6 7 7 12 16 13 8 8 4 3 3 4 5 5 4 4 7 11 10 10 9 8 8 8 8 8 10
6 6 6 6 8 10 10 7 5 4 4 6 5 5 6 7 8 7 7 8 7 7 9 6 4 6 5 6 8 7 7 8 4 5 4 4 4 8 6 4 3 4 4 4 4 4 7 6 7 8 9 9 10 10
2 8 6 7 11 12 12 9 7 7 6 9 8 8 10 6 2 6 9 9 7 7 4 1 2 6 6 5 7 6 4 4 6 8 6 8 9 8 7 5 4 4 4 5 5 5 5 6 7 8 9 9 9 9
5 9 8 11 9 8 8 7 7 7 9 9 12 10 8 5 4 3 16 12 9 8 10 7 7 7 6 4 4 5 6 7 5 7 8 5 4 5 5 6 6 6 7 7 7 7 7 7 7 7 8 9 10 11
6 8 9 8 5 5 6 4 3 4 5 5 7 8 7 3 3 3 10 19 14 10 8 9 9 10 11 10 10 11 11 10 8 7 7 5 5 6 7 7 8 10 10 10 10 9 8 8 7 7 8 9 10 11
Wind_Direction
338 341 342 342 343 347 349 350 353 346 351 352 343 341 329 318 308 286 275 276 254 266 284 257 248 247 278 270 284 323 315 55 335 17 348 351 334 4 284 295 328 327 316 135 170 138 129 356 8 67 358 343 339 342
336 338 339 340 340 344 347 348 348 348 345 353 345 340 327 309 301 288 254 282 265 250 270 291 281 267 259 257 272 259 292 295 1 345 352 308 318 294 313 95 358 34 358 48 13 70 345 341 14 47 2 341 344 336
335 335 336 337 339 340 343 345 346 346 346 350 348 339 328 307 290 267 276 283 278 267 297 310 284 304 300 242 225 257 184 277 217 352 299 307 279 285 354 43 323 359 308 26 270 9 332 314 70 13 355 343 342 341
333 333 336 336 336 338 341 342 344 344 346 350 347 340 325 304 284 251 255 251 227 270 293 279 293 324 76 5 246 218 255 254 358 322 279 265 301 326 353 333 326 359 300 356 43 1 354 132 13 349 338 345 343 339
325 328 332 334 335 335 338 340 342 342 339 347 345 337 320 300 278 259 256 239 228 255 291 293 310 257 263 264 240 235 229 244 228 224 261 294 272 18 302 270 28 349 357 356 33 309 279 297 326 329 335 333 339 336
320 323 329 331 334 334 335 338 338 339 330 339 340 330 310 294 249 264 279 238 222 203 281 305 316 279 302 306 285 271 206 217 228 149 222 270 297 275 333 304 135 25 360 10 317 310 295 294 304 330 330 326 333 334
316 321 324 328 332 332 333 336 336 335 333 336 336 328 315 275 202 201 281 332 200 188 262 299 294 282 332 339 347 25 107 222 242 199 281 323 353 308 301 319 351 339 328 324 314 332 312 306 315 315 316 323 324 326
308 315 319 324 327 331 331 335 336 336 337 337 333 329 332 172 208 281 316 292 201 192 229 288 281 318 359 321 341 338 354 172 321 341 146 347 291 298 301 347 333 331 327 322 330 319 300 301 303 314 321 326 325 325
309 311 318 319 324 329 330 334 337 337 340 338 335 15 100 115 205 161 336 27 181 246 260 209 281 306 339 303 20 353 338 68 345 6 22 312 358 55 302 310 315 315 319 303 316 311 304 309 312 316 319 321 322 319
305 308 312 318 321 329 332 335 337 341 343 341 328 294 91 83 321 128 171 206 217 207 219 253 231 282 292 318 31 341 4 38 17 4 331 21 22 255 268 269 278 298 296 304 308 324 325 317 314 315 319 313 307 308
304 306 311 314 322 330 332 336 338 343 348 354 352 314 315 327 142 224 217 217 182 238 211 236 241 295 184 317 344 272 360 356 31 15 335 69 2 304 322 308 294 307 294 290 279 279 284 283 289 303 309 307 305 300
307 307 307 310 315 323 326 333 344 338 327 300 287 296 288 299 139 238 238 229 221 281 212 252 321 236 230 248 218 196 139 343 83 322 292 39 330 333 347 344 340 336 328 334 338 317 304 295 296 294 299 300 298 296
316 312 310 310 312 315 319 328 339 331 326 296 192 247 305 244 258 213 216 219 256 208 223 287 325 289 203 75 66 40 205 184 299 147 102 238 294 306 330 336 339 314 311 314 322 329 348 333 320 316 306 298 292 288
312 311 308 308 311 309 301 329 330 330 300 265 244 284 205 222 238 197 189 201 230 243 276 293 257 297 320 221 182 209 84 227 98 116 191 279 307 326 317 320 326 336 336 332 326 328 333 350 341 327 322 316 297 289
313 310 307 312 256 305 319 314 317 313 202 241 191 238 226 241 260 250 226 246 216 253 220 220 186 232 53 260 2 322 168 102 251 194 238 251 284 307 299 297 314 330 336 328 331 333 333 343 342 339 338 332 321 290
321 313 305 318 314 315 317 312 314 205 235 227 234 243 210 254 250 214 214 247 188 153 134 182 238 234 193 199 253 204 170 210 224 223 249 299 300 302 314 302 296 306 321 323 326 337 342 342 340 330 334 341 336 325
322 249 287 314 322 317 313 279 210 223 232 226 238 222 205 261 256 252 204 220 156 170 221 170 230 228 119 236 229 194 211 214 224 250 251 263 281 295 303 291 282 300 317 323 322 336 335 336 341 348 342 337 331 325
296 300 306 310 320 321 282 220 244 248 245 237 239 213 198 221 235 242 213 181 178 197 172 225 130 188 211 203 228 225 229 254 256 262 277 282 267 289 302 275 290 293 330 333 336 339 347 353 344 343 334 335 325 326
298 309 301 298 305 299 281 236 211 262 248 260 250 225 228 244 229 247 243 193 205 183 168 190 231 207 208 207 232 242 238 225 246 231 257 279 271 282 327 290 303 339 338 330 338 332 331 335 335 330 322 334 340 337
301 304 306 299 217 236 264 254 216 256 261 261 248 227 219 230 260 233 235 194 187 190 201 213 223 231 218 221 212 228 235 204 204 244 274 315 172 266 283 64 19 329 320 325 330 338 338 335 339 333 335 339 344 335
305 295 298 223 193 217 274 273 251 237 273 261 272 240 256 232 239 229 235 163 182 214 236 222 234 233 230 239 218 222 226 194 207 219 240 284 277 317 309 35 25 349 332 324 327 339 346 343 334 337 335 334 340 341
278 270 258 210 234 227 247 232 244 296 261 265 274 225 254 250 259 246 154 193 231 243 229 236 235 239 239 237 233 220 223 191 202 200 231 241 252 290 314 2 342 337 340 333 331 332 342 352 344 345 342 337 348 345
261 221 213 225 228 225 246 182 216 221 242 248 272 240 233 234 223 154 242 226 244 246 246 235 245 240 241 241 215 179 185 189 186 198 202 210 243 271 259 279 293 323 336 346 334 326 337 349 348 350 348 349 354 354
203 213 223 225 200 244 235 229 208 241 228 235 236 255 231 233 359 236 241 260 289 272 228 230 200 184 193 221 228 210 185 186 180 161 127 135 194 190 270 290 296 288 328 320 324 335 341 348 353 357 4 358 356 356
224 218 224 226 217 220 213 222 209 219 239 202 221 259 237 98 246 252 257 281 297 293 276 230 225 230 231 234 217 171 160 165 158 161 157 176 221 282 341 350 2 19 7 344 356 353 352 352 357 358 5 8 4 2
216 217 209 210 212 210 210 215 204 218 212 204 222 250 277 200 237 247 231 335 331 339 344 308 270 230 226 226 200 171 167 163 153 149 152 152 104 56 17 4 359 14 8 2 350 353 357 359 3 360 5 7 10 17
220 224 212 224 235 243 258 250 270 246 223 207 200 170 157 225 239 245 157 65 24 346 332 318 286 255 238 193 179 166 138 149 157 143 134 117 101 82 51 23 15 5 10 31 24 12 8 7 6 6 9 15 14 15
217 201 192 207 213 216 238 203 210 221 224 207 182 194 196 210 242 127 117 137 320 342 16 4 342 279 227 147 148 146 131 136 127 123 112 95 89 90 88 79 71 69 61 47 49 41 34 27 19 18 21 26 17 17
224 207 207 223 209 210 213 218 232 223 210 197 205 209 215 231 308 282 332 334 329 344 323 336 332 271 124 106 125 150 157 159 161 170 181 168 166 151 140 134 144 129 89 60 47 53 56 59 53 43 35 31 27 29
223 189 208 220 226 233 234 214 242 249 229 246 267 272 269 263 284 319 329 330 323 302 293 276 276 203 235 169 144 137 157 178 183 181 189 194 167 150 156 171 168 144 115 86 72 53 39 33 45 48 41 37 36 38
193 189 220 232 247 247 250 248 250 249 248 257 252 244 252 266 249 51 17 342 317 311 296 35 155 208 164 180 174 166 160 178 158 151 140 135 147 157 164 166 164 151 127 116 110 95 83 68 53 47 52 54 44 50
205 210 225 236 244 251 246 243 235 229 238 236 242 239 241 230 219 58 2 6 22 20 21 8 359 20 34 67 86 73 94 127 128 135 135 145 159 161 146 141 141 130 123 114 105 96 87 80 71 70 69 71 72 69
223 224 233 249 243 237 223 206 224 245 222 233 233 210 202 166 100 27 6 34 39 36 43 55 65 66 69 78 89 91 91 89 94 99 107 136 149 133 123 115 113 113 111 106 100 97 90 87 84 84 87 89 90 89